Temp
17 17 17 17 18 18 18 18 18 18 18 18 19 19 19 19 19 19 19 20 20 20 20 20 20 20 20 20 20 21 21 20 20 20 19 19 18 18 18 19 19 20 20 21 21 21 21 21 21 21 22 22 20 19 20 19 18 20 21 20 20 19 19 20 19 18 18 19 18 16 15 16 17 16 15 14 15 15 14 14 15 14 13 10 11 12 11 11
17 17 17 18 18 18 18 18 18 18 18 18 18 19 19 19 19 19 19 19 19 19 19 20 20 20 20 20 20 20 20 20 20 19 19 19 18 18 18 19 19 20 20 21 21 20 20 20 18 19 21 22 19 19 20 19 19 20 19 19 20 20 19 18 19 18 17 19 18 16 15 16 17 17 15 16 17 15 15 15 14 15 14 11 9 9 10 9
17 17 17 18 18 18 18 18 18 18 18 18 18 18 19 19 19 19 19 19 19 19 19 19 19 20 20 20 20 20 20 19 20 19 19 19 18 18 18 19 19 20 20 20 20 20 20 20 18 19 21 22 19 20 21 19 19 19 18 20 21 19 18 17 17 18 17 17 17 16 15 15 16 16 16 16 16 15 15 16 15 15 16 14 9 7 8 8
17 17 17 18 18 18 18 18 18 18 18 18 18 18 18 19 19 19 19 19 19 19 19 19 19 20 20 20 20 20 19 20 20 19 19 18 18 19 19 19 19 20 20 20 20 20 19 18 18 19 21 22 19 19 21 20 19 18 18 21 20 17 18 18 16 16 15 15 16 16 14 15 15 14 15 16 16 16 16 16 16 17 17 14 9 6 7 7
17 18 18 18 18 18 18 18 18 18 18 18 18 18 18 19 19 19 19 19 19 19 19 19 19 19 20 20 20 20 20 21 20 18 19 19 19 19 19 20 20 20 20 20 20 20 19 18 18 20 21 21 20 20 21 18 17 19 18 19 17 16 19 19 16 15 15 14 15 16 16 16 15 14 15 15 16 17 18 17 17 18 17 14 10 7 6 6
18 18 18 18 18 18 18 18 18 18 18 18 18 18 18 19 19 19 19 19 19 19 19 19 19 20 20 20 20 20 20 21 19 18 19 19 19 19 19 20 20 20 20 20 20 20 20 19 20 21 21 21 20 20 20 16 16 20 19 17 16 16 18 18 15 15 14 15 17 16 16 15 15 15 14 14 16 17 17 17 16 16 13 11 9 7 7 7
18 18 18 18 18 18 18 18 19 19 19 19 19 18 19 19 19 19 19 19 19 19 19 19 20 20 20 20 20 19 19 20 19 18 19 19 19 19 19 20 20 21 21 20 20 21 20 20 21 20 20 21 20 19 19 17 17 20 20 17 16 15 17 17 15 14 14 16 16 15 15 15 16 16 13 14 16 16 15 12 10 9 8 8 9 7 7 7
18 18 18 18 18 19 19 19 19 19 19 19 19 19 19 19 19 19 19 19 19 19 19 19 20 19 20 20 20 19 19 20 19 19 19 19 19 19 20 20 20 21 20 20 19 20 20 20 20 19 20 21 19 19 18 17 19 19 19 18 16 15 16 15 14 15 15 15 14 14 16 16 15 14 13 15 16 15 13 11 8 7 8 9 10 9 7 6
18 18 18 18 18 19 19 19 19 19 19 19 19 19 19 19 19 20 19 19 19 20 19 19 20 19 20 19 18 20 20 19 19 19 19 19 20 19 20 20 20 20 20 19 18 19 20 20 20 19 21 19 18 19 17 19 20 18 18 17 16 16 15 14 15 15 15 14 14 15 17 15 13 12 15 17 16 13 12 12 11 11 12 11 11 9 7 7
18 18 18 18 18 19 19 19 19 19 19 19 19 19 20 20 20 20 20 20 19 20 20 20 20 19 20 19 18 20 20 19 19 19 19 19 19 19 20 19 19 20 19 19 18 18 18 19 18 17 19 19 18 17 16 18 18 16 16 16 16 16 15 14 15 15 14 14 14 15 17 15 13 13 17 18 14 12 13 12 11 12 13 11 10 8 6 6
18 18 18 18 18 18 18 19 19 19 19 19 19 19 19 20 20 20 20 20 19 19 19 19 19 19 19 19 19 20 19 19 19 19 19 19 19 20 19 19 19 19 19 18 18 17 17 17 16 16 19 19 18 17 16 16 16 15 16 17 16 15 15 14 15 15 14 15 14 14 15 14 12 14 18 16 12 13 15 14 11 12 13 11 10 8 6 6
18 18 18 18 18 18 18 18 19 19 19 19 19 19 19 19 20 20 19 19 19 19 19 19 19 19 19 18 19 19 19 19 19 19 19 19 19 19 19 19 19 19 18 18 18 18 18 17 16 18 19 18 18 18 17 15 15 16 16 17 17 16 17 15 14 15 15 15 13 14 16 15 13 15 17 14 11 13 16 14 12 11 12 11 9 8 7 6
18 18 18 18 18 18 18 18 19 19 19 20 20 20 20 20 19 20 20 19 19 19 19 19 19 19 19 19 19 19 19 19 19 19 19 19 19 19 19 19 19 19 19 18 18 18 18 18 17 18 17 17 18 17 16 15 15 16 15 17 17 18 18 14 13 14 15 15 13 14 18 19 16 16 16 12 10 14 16 14 13 11 11 10 9 9 8 5
18 18 18 18 18 18 18 18 19 19 20 20 20 20 20 20 20 20 19 19 19 19 19 19 19 19 18 19 19 19 19 19 19 19 19 19 19 19 19 19 19 19 19 19 19 18 18 18 17 17 15 16 17 15 16 16 16 16 16 15 15 18 19 14 12 15 16 14 13 15 17 19 18 16 15 12 11 14 15 13 12 11 9 8 8 8 7 5
18 18 18 18 18 18 18 18 19 19 20 20 20 20 20 20 20 20 19 19 19 19 19 19 19 19 18 19 19 19 19 19 19 18 18 18 18 18 19 19 19 19 19 19 19 19 18 18 18 17 16 14 15 17 17 16 16 15 17 18 14 16 18 16 13 13 16 14 13 16 17 17 17 15 13 11 11 13 13 11 10 10 8 7 7 7 7 6
18 18 18 18 18 18 18 18 19 20 20 20 20 20 20 20 20 20 20 19 19 19 19 19 19 19 19 19 19 19 18 18 18 18 18 18 18 17 17 18 19 19 19 19 19 19 19 18 16 15 16 16 16 18 18 17 17 15 16 18 16 16 17 17 14 12 14 15 14 15 16 17 15 13 12 9 11 13 12 9 8 8 7 7 7 7 8 7
18 18 18 18 18 18 18 18 19 20 20 20 20 20 20 20 20 20 20 20 20 19 19 19 19 19 19 19 19 18 17 17 18 17 17 17 17 17 17 17 17 17 19 19 19 19 18 17 15 14 16 15 15 17 18 18 19 16 15 16 16 15 16 17 16 12 12 14 15 14 14 16 15 13 12 9 10 12 10 8 7 7 7 7 7 7 7 7
18 19 19 19 18 18 19 19 19 20 21 20 21 20 20 20 20 20 20 20 19 19 19 19 19 19 19 19 18 17 17 17 17 17 17 17 17 17 16 16 16 16 18 18 19 18 17 17 16 17 17 15 15 17 19 18 19 18 17 17 16 15 15 16 16 14 12 14 14 13 14 15 13 12 11 8 8 9 8 7 7 7 7 7 7 7 6 6
19 19 19 19 19 19 19 19 20 20 20 21 21 20 20 20 20 20 20 20 19 19 19 18 18 19 18 17 16 16 17 16 17 17 17 17 17 17 16 16 16 17 19 19 19 17 17 17 17 18 18 18 17 17 18 18 17 17 16 16 17 16 15 15 15 12 11 13 14 13 14 13 12 11 9 8 8 8 7 7 7 7 7 7 7 6 6 5
19 19 19 19 19 19 19 19 20 20 20 21 21 21 21 20 20 20 19 18 16 16 17 16 16 17 17 16 15 16 17 17 17 16 17 17 17 17 16 16 16 18 18 18 18 16 15 18 18 18 19 18 16 15 15 15 14 15 15 15 15 15 15 15 14 11 10 13 14 12 12 11 10 9 8 8 8 7 7 7 7 7 7 6 6 6 5 5
19 19 19 19 19 19 19 20 20 20 20 20 21 20 19 18 19 19 17 16 13 11 14 14 13 15 16 15 15 15 16 17 17 16 17 16 16 17 17 17 18 19 17 15 16 15 15 18 18 16 15 14 13 13 13 14 14 15 15 15 14 13 14 14 13 11 10 13 13 11 11 10 8 7 7 8 8 7 7 7 7 6 6 6 6 6 5 4
19 19 19 19 19 20 20 20 20 20 19 20 20 17 15 15 16 16 15 17 15 12 13 13 13 15 15 15 15 14 15 17 17 16 16 16 17 18 17 17 18 18 16 15 16 17 17 18 16 13 11 11 12 12 13 14 14 14 14 14 15 13 13 13 11 10 11 13 13 11 11 10 7 7 7 7 7 7 7 6 6 6 6 6 6 5 5 4
19 19 19 20 20 20 20 20 20 19 19 19 18 15 14 15 15 14 15 17 17 14 14 15 15 16 16 16 15 15 16 16 17 16 15 16 17 15 16 17 17 17 16 17 17 17 18 17 14 11 11 12 14 13 13 14 14 14 14 14 15 13 13 15 12 11 11 11 12 11 11 10 8 8 7 7 7 6 6 6 5 5 5 5 5 5 4 4
19 19 20 20 20 20 20 20 20 19 18 18 17 16 15 15 15 14 15 15 16 16 15 15 15 15 16 16 15 15 16 15 15 16 14 15 15 14 15 16 16 17 16 16 16 17 18 15 10 11 12 13 14 14 14 15 15 14 14 14 15 13 13 14 12 11 11 10 10 11 11 10 8 8 7 7 7 6 5 5 5 5 4 4 4 4 4 3
19 20 20 20 20 20 20 20 20 19 17 17 17 16 15 15 15 15 16 16 17 17 16 15 14 15 15 15 15 15 15 15 14 14 13 13 14 14 15 14 15 17 16 14 15 16 16 12 9 12 13 13 14 14 14 14 14 14 14 13 14 14 13 12 12 12 13 12 10 11 13 11 8 7 7 7 7 6 5 5 4 4 4 5 4 4 3 3
19 20 20 20 20 20 20 20 19 18 17 16 15 15 15 15 15 15 16 17 18 18 17 17 16 16 16 15 14 13 15 16 14 13 13 13 13 14 15 14 14 16 15 14 14 15 13 10 10 13 13 13 14 14 13 12 14 15 13 11 11 12 12 11 12 12 13 13 11 10 13 12 8 8 7 7 6 5 5 4 4 4 4 4 4 3 3 3
20 20 20 20 20 20 20 20 19 18 18 16 15 15 15 15 15 15 16 19 19 17 17 18 17 16 16 14 13 14 17 17 14 13 13 13 12 13 15 16 15 15 13 14 16 14 12 12 12 12 13 14 14 14 12 11 14 15 11 9 11 11 11 11 11 11 12 11 10 9 11 12 10 9 8 7 6 5 5 4 4 4 4 4 4 3 2 2
19 19 20 20 20 20 19 19 18 17 16 16 15 15 15 15 15 15 18 19 18 17 17 17 17 16 15 13 13 15 16 15 16 15 12 12 13 13 16 15 15 15 12 14 18 14 11 13 13 13 13 14 14 13 11 11 14 13 9 9 10 10 10 10 10 11 9 10 12 10 9 12 11 8 7 7 6 5 4 4 3 3 3 4 3 3 2 1
19 19 20 20 20 19 19 18 18 16 16 15 15 15 15 14 15 16 19 19 17 17 16 17 17 16 15 14 14 14 14 14 16 14 12 13 13 13 15 13 13 14 12 13 16 14 11 11 11 12 14 13 13 11 10 11 13 11 8 8 9 8 9 9 9 10 9 10 13 11 10 12 11 7 6 7 6 5 4 4 3 3 3 3 3 2 2 1
19 19 19 19 19 19 18 18 17 16 15 15 15 15 14 15 16 18 19 18 18 17 16 17 17 15 14 16 16 14 14 14 13 13 13 13 13 12 11 11 12 14 13 12 14 12 10 9 8 10 11 11 11 10 9 10 10 9 9 10 10 9 8 8 8 9 10 12 12 10 9 11 11 8 6 7 6 6 4 3 3 3 3 3 2 2 1 1
19 19 19 19 19 18 18 17 17 16 15 15 15 14 15 16 17 19 18 17 17 17 16 16 15 14 13 14 15 14 14 14 13 14 15 14 13 13 12 12 13 14 15 15 14 12 10 10 10 10 9 8 10 10 8 7 8 9 11 12 12 11 10 10 9 9 11 13 11 9 9 10 12 9 7 7 6 5 4 3 3 3 3 3 2 1 1 0
19 18 18 18 18 17 17 17 16 16 16 16 14 13 16 19 18 18 17 17 17 16 15 15 13 13 12 12 14 13 13 14 13 12 13 12 12 11 11 12 12 14 16 15 14 14 12 11 10 9 8 8 10 12 11 9 10 11 12 12 13 13 12 12 12 11 12 13 11 9 9 11 10 7 5 5 5 4 4 3 3 3 3 2 2 1 1 0
18 18 18 18 17 17 17 16 16 16 16 15 14 15 18 19 18 16 16 17 17 14 13 13 12 12 12 14 14 12 11 14 13 12 11 11 12 11 9 9 9 13 15 13 13 14 14 12 10 11 11 8 10 13 13 12 12 12 12 12 13 13 12 12 12 10 11 12 10 8 9 11 10 6 3 3 3 4 4 3 3 3 2 1 1 1 0 -0
18 18 18 17 17 17 17 16 16 16 15 15 16 18 19 19 17 15 15 16 14 13 12 12 12 13 13 14 13 11 13 14 12 13 13 12 13 13 12 11 10 11 13 13 12 13 14 15 13 13 12 9 10 11 11 12 12 10 10 11 12 13 12 12 12 11 11 11 9 9 10 10 9 6 3 2 2 2 3 3 3 2 1 1 1 0 0 -1
18 18 17 17 17 17 17 17 17 16 15 16 18 19 18 17 16 14 15 14 12 13 12 10 12 15 15 14 12 11 13 14 13 13 14 13 13 12 12 11 10 10 12 14 13 11 13 15 13 10 9 9 10 9 8 10 12 10 8 10 12 12 12 11 10 9 9 8 9 9 9 7 6 5 3 2 2 2 3 2 2 2 1 0 0 -0 -1 -1
18 18 18 18 17 17 17 17 17 16 15 17 19 18 16 16 14 14 13 12 11 11 12 13 13 15 16 14 13 12 12 13 13 13 13 12 11 11 11 10 9 9 11 12 12 12 13 14 12 9 8 9 9 8 7 10 12 11 9 11 10 9 10 11 9 7 7 8 9 9 8 5 5 5 4 3 3 3 2 2 1 1 0 0 -0 -1 -1 -1
18 18 18 17 17 17 17 17 17 16 16 19 19 16 14 13 12 12 11 10 10 9 11 15 15 14 14 14 15 14 12 13 13 13 13 12 11 11 10 10 9 8 9 10 11 11 11 13 12 10 11 9 6 6 8 8 9 11 11 11 9 8 9 10 9 9 9 9 9 8 7 6 6 6 4 3 3 2 2 2 1 1 0 -0 -0 -1 -1 -1
17 17 17 17 17 17 17 17 17 16 17 18 16 14 13 12 10 9 9 9 9 10 12 14 14 13 13 14 14 13 12 14 14 13 13 13 12 11 10 10 9 8 7 8 11 11 10 12 12 10 10 9 6 7 10 8 7 9 10 9 9 10 10 10 9 10 9 8 8 8 6 6 7 6 3 3 3 2 2 1 1 0 0 -0 -1 -1 -1 -2
17 18 18 17 17 17 17 18 16 16 18 18 15 13 12 11 10 8 7 8 9 11 13 13 12 13 13 12 13 12 11 13 13 12 13 13 12 11 9 9 9 8 6 7 10 10 9 11 12 10 8 9 9 10 12 11 9 8 8 9 9 9 10 9 9 9 9 8 8 7 7 8 6 4 3 3 2 2 2 1 0 -0 -0 -1 -1 -1 -2 -2
16 18 19 17 17 17 17 18 16 16 17 15 13 13 11 10 10 7 6 7 9 11 12 12 11 12 13 12 11 11 11 12 12 12 13 12 12 12 9 7 9 9 6 7 9 9 9 10 12 11 9 10 12 11 11 11 10 9 10 10 10 9 8 8 8 7 8 9 8 7 8 8 4 3 4 3 2 1 1 1 -0 -0 -1 -1 -1 -1 -2 -2
15 18 19 17 17 18 18 18 15 13 14 13 11 12 10 10 10 8 6 6 8 9 10 10 11 11 12 12 11 10 11 12 11 12 12 12 12 13 8 5 7 7 7 9 9 8 9 10 10 11 11 12 13 10 8 9 9 10 10 10 10 9 9 8 8 6 6 8 7 6 7 7 3 2 3 2 1 1 1 0 -0 -1 -1 -1 -1 -1 -2 -2
16 18 18 17 18 19 19 17 11 9 12 13 11 10 9 9 9 9 8 7 8 9 9 10 10 10 11 11 11 10 10 12 12 12 12 11 12 12 7 3 4 5 7 9 8 7 8 8 8 10 10 11 10 7 5 7 7 8 8 8 8 8 9 9 8 7 6 7 6 6 7 5 2 2 2 1 1 1 0 0 -1 -1 -1 -1 -1 -1 -2 -2
17 18 18 17 17 18 19 17 13 11 12 10 8 8 8 8 10 10 9 9 9 10 10 10 10 10 11 10 10 10 11 11 12 12 12 11 10 8 5 3 4 5 7 8 8 6 7 8 8 9 10 10 9 7 5 6 7 8 8 7 7 7 8 8 7 6 6 7 7 6 7 5 2 2 2 1 0 0 0 0 -1 -1 -1 -1 -1 -1 -2 -2
15 15 16 17 18 19 19 17 15 14 11 9 10 10 8 8 9 10 10 10 9 10 11 11 10 10 10 9 9 11 11 12 12 11 11 11 10 5 3 3 4 5 7 7 7 7 8 9 9 9 10 10 10 9 9 8 8 9 8 6 6 6 6 6 5 5 6 7 6 6 7 6 3 1 1 1 0 0 -0 -0 -0 -1 -1 -1 -2 -2 -2 -2
15 15 15 16 16 16 14 13 14 15 12 12 13 11 10 10 8 8 9 9 8 8 10 10 9 9 9 9 9 10 10 11 12 11 10 10 9 5 3 4 4 5 6 5 5 6 7 8 8 9 9 9 10 10 10 9 8 8 8 6 6 5 6 6 6 6 7 6 5 6 7 6 2 0 1 1 -0 -0 -1 -1 -0 -1 -1 -1 -2 -2 -2 -3
16 17 16 16 14 12 10 8 10 14 13 13 14 12 11 12 9 6 7 9 8 7 9 9 8 9 9 10 10 11 10 10 10 10 10 11 10 6 3 4 4 4 5 4 4 5 7 7 7 9 9 9 9 9 9 8 8 8 8 7 6 4 4 5 6 7 6 5 5 6 6 5 4 2 1 0 -0 -1 -1 -1 -1 -1 -2 -2 -2 -2 -3 -3
16 16 14 15 15 14 13 10 10 12 12 12 13 12 11 12 12 9 8 9 8 7 8 9 8 10 11 10 10 11 10 10 9 10 9 9 9 7 4 3 4 4 4 4 4 5 8 8 7 7 8 8 8 8 8 7 6 7 6 6 6 4 3 5 7 6 5 5 5 5 3 3 5 3 2 1 -1 -1 -1 -1 -1 -2 -2 -2 -3 -3 -4 -4
14 14 11 12 15 15 14 13 11 11 11 11 11 11 11 12 12 11 10 9 8 8 10 11 10 10 10 9 10 11 10 10 11 10 9 8 8 8 6 5 5 4 5 5 4 5 8 8 6 5 7 7 7 7 6 6 5 5 5 5 5 4 3 5 6 5 4 5 6 5 2 2 3 3 1 -0 -1 -1 -1 -1 -2 -2 -2 -3 -4 -4 -5 -5
12 13 10 9 12 13 11 10 10 12 12 11 11 11 12 12 12 11 9 10 10 9 9 12 12 10 9 8 9 10 11 11 11 10 9 8 7 8 8 7 6 5 5 6 5 4 6 7 5 4 6 7 7 6 5 5 5 5 4 3 3 3 4 4 4 3 3 4 5 3 2 2 2 1 -0 -1 -1 -1 -1 -2 -2 -3 -3 -4 -5 -5 -5 -6
13 15 12 11 12 11 9 9 10 13 13 11 12 12 10 11 12 10 8 10 13 11 9 11 12 9 8 8 8 10 10 10 10 9 8 7 7 7 8 8 6 5 6 7 5 4 6 6 5 4 6 8 7 6 6 6 6 5 4 3 3 3 3 3 3 3 3 4 3 2 1 2 1 -1 -1 -1 -1 -2 -2 -2 -3 -3 -3 -5 -6 -6 -6 -6
12 12 12 15 14 10 10 10 10 14 14 12 12 12 10 11 10 9 9 9 10 11 10 10 10 8 8 7 8 10 8 7 8 7 6 6 7 7 7 7 5 5 6 5 4 5 6 5 5 5 7 8 7 7 6 5 4 4 5 4 3 4 4 3 3 3 3 3 2 1 2 1 -0 -2 -2 -2 -2 -2 -2 -3 -3 -3 -4 -6 -6 -6 -6 -7
12 11 11 15 15 10 10 11 11 13 14 11 10 10 10 11 8 8 11 10 7 8 8 7 8 8 9 10 9 8 6 5 5 5 4 5 5 5 5 5 4 5 6 5 4 3 4 5 5 5 6 8 7 6 5 5 6 7 5 4 3 3 3 3 2 2 3 2 2 2 2 0 -2 -2 -2 -2 -2 -3 -3 -3 -3 -3 -5 -6 -6 -7 -7 -8
Height
827 827 827 827 826 826 826 825 825 825 824 824 823 823 822 822 821 820 820 820 819 819 818 817 816 815 815 814 813 812 811 811 810 810 810 810 809 808 806 805 805 803 803 802 801 800 800 800 799 799 798 799 802 803 803 803 806 806 813 820 820 823 821 814 817 820 817 814 816 819 820 819 818 819 820 820 820 820 822 822 820 819 820 821 821 820 821 822
827 827 827 827 827 827 826 826 825 825 825 824 824 823 822 822 821 821 820 820 819 819 818 817 816 815 814 813 812 811 810 810 809 810 809 809 808 807 806 805 804 803 802 802 801 801 801 801 800 800 800 801 804 803 803 805 805 809 818 821 817 817 815 812 813 815 816 814 815 819 820 820 817 817 819 819 819 821 822 820 821 820 819 821 821 821 822 823
828 828 828 827 827 827 826 826 826 825 825 824 824 823 823 822 821 821 820 820 819 819 818 817 816 815 814 813 812 811 810 810 809 809 809 808 808 807 806 804 804 803 802 802 802 802 802 802 801 801 801 802 805 804 803 805 807 811 817 816 813 813 813 815 815 814 816 816 816 818 821 821 818 818 819 818 819 821 820 817 818 819 816 818 822 823 822 824
828 828 828 827 827 827 827 826 826 826 825 825 824 823 823 822 822 821 821 820 819 819 818 817 816 814 814 812 812 811 810 811 810 809 809 808 808 806 805 804 804 803 802 802 801 801 801 801 801 801 802 803 806 806 805 806 808 812 814 810 811 815 813 812 815 816 818 819 817 818 821 820 819 820 819 819 819 818 816 813 813 813 811 816 822 823 823 824
828 828 828 828 827 827 827 826 826 826 825 825 824 824 823 822 822 821 821 820 819 818 817 816 815 814 813 812 812 811 811 814 812 809 809 808 807 806 805 804 803 803 802 801 801 801 801 801 801 802 803 804 806 805 806 809 809 810 812 812 814 817 812 810 816 818 818 820 818 819 819 818 819 821 819 819 818 813 809 809 809 809 809 813 819 821 823 824
828 828 828 827 827 827 827 826 826 826 825 825 824 823 822 822 822 821 820 820 819 818 817 816 815 814 812 811 811 810 813 815 810 808 809 808 807 806 805 804 803 802 802 801 801 801 801 801 801 803 804 805 807 806 807 811 811 808 811 814 816 816 812 811 816 818 819 818 816 817 817 818 820 818 820 820 813 808 807 808 809 809 810 812 815 819 822 823
828 828 827 827 827 827 827 826 826 825 825 824 823 822 822 821 821 820 820 819 818 817 816 815 814 813 812 811 810 810 813 812 809 808 808 807 807 806 804 804 803 801 801 801 801 801 801 801 801 804 805 805 808 808 808 811 811 809 809 812 815 816 814 813 817 818 818 816 815 818 817 818 817 816 822 818 809 807 808 810 811 811 812 813 815 819 820 821
828 828 827 827 827 827 826 826 825 825 824 823 822 822 821 821 820 820 819 818 818 817 816 815 814 813 812 811 810 812 813 810 808 808 808 807 807 805 804 804 802 802 801 801 801 801 801 802 802 806 805 806 808 808 810 811 809 809 809 811 815 816 815 816 818 817 818 817 819 819 816 816 817 820 820 811 805 807 809 810 812 813 813 814 816 818 819 820
829 828 828 828 827 827 826 826 825 824 824 823 822 821 820 820 820 819 819 818 817 816 816 815 814 813 812 811 811 813 811 809 809 808 807 807 806 805 804 804 803 802 801 801 801 800 801 802 803 804 804 807 808 808 811 810 809 809 810 812 814 814 816 818 817 816 818 818 819 817 814 816 821 822 814 804 805 809 809 810 812 813 814 815 817 818 819 820
829 829 828 828 827 827 826 826 825 824 824 823 822 821 820 819 819 819 818 817 817 816 815 814 814 813 812 811 813 815 811 808 809 808 808 807 806 806 804 804 803 802 802 802 802 801 803 803 803 804 804 807 809 811 814 811 811 813 814 814 814 815 817 818 816 817 819 818 818 817 814 816 821 821 809 803 808 810 808 809 812 812 813 816 818 819 819 820
830 829 829 828 828 827 827 826 825 824 823 822 822 820 820 819 818 818 817 817 816 815 815 814 813 813 812 812 815 815 809 808 809 808 808 806 806 805 804 804 803 802 802 802 803 803 803 803 804 804 804 806 808 813 814 812 814 815 815 813 815 816 815 817 817 817 819 817 818 818 818 819 822 819 808 805 811 810 807 810 813 814 815 817 818 820 822 823
830 830 829 829 828 827 827 826 825 824 823 822 821 820 819 819 818 818 817 816 816 815 814 813 813 812 812 812 813 812 808 809 808 807 807 806 806 805 805 805 803 803 803 803 803 803 804 803 803 804 806 807 809 812 812 814 816 814 815 813 813 814 812 815 817 817 817 816 820 820 815 815 819 814 805 810 814 810 808 810 814 815 816 819 821 824 825 825
831 830 830 829 828 828 826 826 824 823 822 821 820 820 819 818 817 817 816 816 815 814 813 812 812 811 812 812 811 809 809 809 808 808 807 806 806 805 805 805 804 804 803 803 804 804 804 803 803 805 807 808 810 812 812 815 816 814 818 816 814 812 809 816 820 818 817 817 820 821 813 806 810 810 807 813 815 809 808 811 815 817 820 823 824 826 827 828
831 830 830 829 828 827 826 825 824 823 821 820 820 819 818 817 817 816 816 815 814 814 813 812 812 811 812 812 809 809 809 809 808 808 807 806 805 805 805 805 804 804 803 803 804 804 804 803 804 805 809 811 811 812 814 817 817 817 819 820 824 816 808 816 822 817 815 819 819 818 817 807 804 810 811 814 814 810 810 814 818 820 824 827 828 829 829 830
831 830 830 829 828 827 826 825 823 822 820 820 819 817 817 816 816 815 815 814 813 813 812 812 811 811 813 811 808 809 809 808 809 808 807 806 805 805 805 804 804 803 803 803 803 804 804 804 805 807 811 813 813 813 816 819 819 822 818 817 829 824 812 815 821 820 814 817 819 816 818 811 808 813 815 817 815 812 814 819 823 824 827 829 830 831 831 832
831 831 830 829 828 827 826 824 822 821 820 818 817 816 816 815 814 814 814 813 812 812 811 811 811 811 814 812 809 809 809 809 809 808 808 807 806 806 805 803 803 803 803 803 803 804 804 805 809 813 813 813 815 814 816 819 819 826 823 816 823 824 819 815 818 825 819 816 818 816 816 810 811 816 817 820 817 813 818 824 827 828 830 831 830 832 832 834
831 830 830 829 828 827 825 824 822 820 819 818 816 815 814 813 813 813 813 812 811 811 811 811 811 811 813 811 809 810 811 810 809 809 808 807 807 806 805 804 803 803 802 802 802 804 805 807 813 815 815 818 820 816 818 819 814 821 827 822 822 824 823 817 814 823 824 819 817 820 820 812 813 819 819 823 820 816 823 827 830 831 831 832 832 833 835 837
831 831 830 829 828 827 825 823 822 820 819 817 815 813 813 812 812 812 812 811 811 811 811 811 811 814 815 811 812 813 811 810 809 809 808 807 806 805 805 804 804 803 803 804 804 805 807 810 814 813 815 820 820 816 817 817 813 815 820 819 820 824 825 821 816 821 824 821 820 822 821 815 818 823 823 828 825 822 828 831 831 832 833 833 834 836 838 840
832 831 830 829 828 826 825 824 822 820 818 816 815 813 812 812 811 811 812 811 812 813 815 816 815 819 819 815 815 814 811 810 809 808 808 807 806 805 805 805 805 804 805 807 806 808 810 811 813 813 813 813 815 816 813 815 817 817 819 820 819 819 821 821 820 825 827 821 819 822 820 818 823 827 830 832 830 828 831 833 833 834 835 836 837 839 841 843
832 831 830 829 828 827 825 824 822 821 819 817 815 813 813 815 815 814 814 814 818 820 820 821 820 820 818 816 816 813 811 810 809 809 808 807 806 805 806 806 806 805 808 810 809 813 815 812 814 813 810 812 817 821 820 822 824 821 821 821 822 824 821 818 821 828 831 821 818 824 824 828 832 833 836 835 832 834 834 834 835 836 838 839 840 841 843 845
832 831 830 829 828 827 825 824 823 821 819 818 815 815 818 822 821 821 820 819 821 822 821 821 821 819 817 817 816 814 813 811 810 810 808 807 806 805 806 807 807 807 812 817 814 815 817 814 815 817 819 822 824 826 826 824 823 820 821 822 824 827 821 819 824 830 832 823 822 830 829 833 841 839 838 836 834 837 838 838 839 839 841 842 843 844 846 848
832 831 831 829 828 827 825 824 823 821 821 819 817 818 821 823 823 823 824 822 821 821 821 820 820 819 817 817 816 816 816 814 811 810 809 808 805 806 808 809 810 811 815 819 815 816 817 814 817 824 830 829 826 828 825 821 822 822 825 825 822 825 823 822 828 831 831 823 822 829 829 835 845 843 841 840 839 841 841 842 842 843 844 845 846 847 848 850
832 831 831 829 828 827 825 824 823 822 821 820 820 820 822 823 823 823 824 825 822 820 820 819 819 819 817 817 817 817 816 817 815 812 811 809 808 812 812 811 814 814 815 815 814 817 815 814 822 830 830 826 823 825 823 820 823 822 825 824 820 826 825 817 824 829 830 828 827 828 830 837 844 842 843 844 843 845 846 846 847 847 847 848 850 850 851 852
832 832 830 829 828 826 825 824 823 822 821 821 821 822 823 823 823 823 824 827 826 820 819 819 819 819 818 817 817 817 817 819 818 815 813 812 813 815 814 815 816 815 817 818 818 817 814 820 831 830 826 824 821 823 823 820 820 821 823 823 818 822 823 821 827 829 828 832 834 831 828 836 845 844 845 847 846 848 850 850 851 851 852 852 852 852 853 854
832 831 830 829 828 826 825 824 823 823 822 822 823 823 824 823 823 824 823 827 827 821 819 819 819 819 819 818 817 818 819 819 818 817 816 815 815 815 815 818 816 814 818 822 820 816 816 827 833 826 824 825 821 821 822 821 822 821 820 823 821 820 824 827 829 828 824 824 830 829 819 828 846 848 847 848 848 851 853 854 855 855 854 853 854 855 856 856
832 831 830 829 828 826 825 824 824 823 822 823 824 824 824 823 824 823 824 829 828 822 820 819 820 819 818 819 818 819 819 818 818 818 817 816 816 815 815 818 818 816 819 822 820 819 823 831 832 825 823 825 822 821 824 827 825 820 823 830 829 826 828 829 829 828 823 818 827 831 816 822 844 847 846 850 850 854 857 858 859 858 857 856 857 858 858 858
832 831 830 829 828 826 825 824 824 823 823 824 824 823 823 823 824 823 825 832 831 826 823 820 820 820 819 820 819 818 819 818 817 818 818 817 817 817 815 817 818 818 822 821 816 821 827 827 827 827 824 823 821 820 826 830 822 819 831 836 830 829 830 830 831 829 827 826 829 833 825 822 833 839 844 850 852 856 860 861 862 861 860 860 859 860 861 860
832 831 830 829 828 826 825 825 824 824 824 824 824 823 823 823 823 823 827 837 836 827 825 822 820 820 820 820 820 820 821 821 818 817 819 818 817 817 815 818 819 819 824 822 814 823 829 823 823 825 823 823 822 824 831 831 822 823 835 837 833 834 832 834 834 831 838 836 821 826 832 820 823 841 848 850 854 857 861 863 863 863 862 861 862 862 863 863
832 831 830 829 828 826 826 825 825 825 824 824 824 823 823 823 823 824 830 839 834 826 827 823 819 822 823 821 822 824 823 822 822 819 819 819 817 817 818 821 823 820 825 825 817 823 830 830 831 827 823 824 825 830 835 830 825 830 839 839 838 840 838 838 837 833 840 834 813 819 830 816 819 846 854 849 852 854 859 864 864 864 864 862 863 864 864 865
832 831 830 828 827 826 825 825 825 825 824 824 823 823 823 823 824 829 837 839 832 829 828 823 824 830 829 823 822 826 826 825 827 823 819 821 819 820 824 826 824 822 824 826 823 826 834 837 837 833 830 831 832 835 838 835 833 836 837 832 831 838 841 841 842 841 834 823 815 824 831 819 817 836 847 845 846 848 856 864 864 864 865 864 865 866 866 866
832 831 830 828 827 827 825 825 825 824 824 823 823 823 823 824 828 835 842 838 833 832 829 828 833 835 836 835 830 830 829 828 830 826 822 825 824 823 825 824 824 823 821 822 822 828 835 833 833 836 838 839 835 833 838 842 840 836 831 825 822 827 833 834 836 837 823 812 819 831 835 825 816 826 841 843 844 848 853 860 863 864 865 866 866 867 867 867
831 830 829 828 827 826 826 826 825 824 824 822 823 823 823 828 833 840 842 836 834 837 836 838 841 839 842 843 838 838 836 831 832 833 833 835 835 837 837 836 835 826 822 827 826 824 828 831 835 837 838 840 833 825 830 836 834 829 826 825 820 819 824 821 820 828 822 813 824 834 832 823 822 838 852 850 848 851 853 858 861 863 865 867 868 868 868 868
831 830 829 828 828 827 826 826 824 824 823 822 823 823 825 832 840 847 846 838 839 844 844 845 844 845 844 838 837 843 842 835 834 836 840 840 838 843 848 850 848 834 828 836 835 826 823 828 834 831 832 839 834 823 822 825 826 826 826 825 821 824 830 823 822 833 827 815 826 837 831 820 824 846 860 858 856 855 856 860 861 863 866 867 869 868 868 869
831 830 829 829 828 827 826 825 824 824 822 822 823 823 828 837 845 851 848 844 847 848 849 851 847 843 842 838 842 846 840 835 838 837 836 836 835 838 842 845 847 842 835 836 838 837 828 822 825 826 828 835 834 830 830 828 829 833 835 832 825 825 829 826 824 826 823 824 832 833 827 822 828 847 861 863 862 859 859 863 863 865 867 868 868 868 868 869
830 830 830 829 828 827 826 825 824 822 821 822 824 827 835 843 850 851 850 851 853 850 850 855 849 839 838 842 847 849 842 836 839 838 835 838 841 843 844 844 848 847 839 835 839 844 835 823 826 835 838 837 833 837 841 834 828 837 842 833 827 827 828 830 833 837 840 842 836 827 832 844 850 855 863 863 862 862 862 863 865 866 868 868 868 869 869 869
830 830 829 828 828 827 825 824 823 822 821 821 825 835 844 849 851 853 854 856 858 857 852 848 845 839 838 842 843 846 846 841 840 838 837 844 848 848 849 850 853 852 844 840 842 843 836 825 827 837 839 839 838 839 842 835 826 832 836 829 832 840 834 830 838 850 853 844 833 828 837 855 859 855 861 864 861 863 865 865 867 868 869 870 870 871 871 870
830 829 829 829 828 826 825 824 822 821 821 821 829 844 853 855 857 859 861 861 862 864 856 845 844 845 845 844 840 841 844 842 842 840 839 844 847 848 850 851 854 856 853 850 845 845 844 831 827 833 832 835 846 844 839 841 834 828 830 831 838 844 840 838 839 840 843 840 833 831 840 851 850 847 859 865 862 865 867 867 869 869 870 871 871 872 871 871
830 829 829 829 828 826 825 823 822 821 822 827 840 853 857 858 862 865 866 865 864 862 855 848 847 848 850 849 844 846 847 841 841 843 842 843 844 848 851 850 853 857 860 856 846 848 853 838 828 835 835 835 846 841 832 839 842 835 834 837 838 834 831 838 840 835 840 844 837 837 847 847 840 845 860 864 862 866 868 868 870 870 871 872 871 872 871 871
829 830 830 829 827 826 824 822 823 822 823 834 847 854 858 860 864 868 868 867 865 860 854 854 855 853 853 853 850 851 852 847 846 847 844 843 844 847 853 854 852 856 861 859 850 849 854 845 831 834 841 838 836 833 825 829 838 840 840 840 840 839 835 838 843 842 843 844 841 841 838 834 842 854 859 861 864 867 868 869 872 872 872 872 872 872 871 870
830 831 830 829 827 826 825 822 823 826 832 846 853 855 861 863 863 869 871 868 865 861 857 859 861 856 854 856 857 857 855 852 851 849 845 846 844 845 855 861 855 856 861 859 855 853 852 850 838 830 837 835 827 830 830 829 834 836 834 834 836 840 843 843 847 850 847 841 846 850 836 833 854 862 856 862 867 867 868 870 872 873 873 872 871 871 871 869
831 832 831 829 826 826 824 824 834 843 847 854 859 859 863 864 863 867 872 871 867 864 863 863 862 860 857 856 857 860 857 852 852 851 847 848 844 842 856 866 862 860 859 852 854 856 852 852 847 837 834 827 823 836 842 838 838 836 833 835 837 839 842 844 848 856 856 846 849 855 840 838 860 863 860 866 867 867 871 871 871 872 871 871 870 870 869 868
832 835 833 829 826 824 824 832 851 859 853 855 861 863 865 866 865 865 868 870 867 865 865 863 862 862 860 858 858 861 859 852 851 850 847 849 847 846 858 870 869 866 859 852 856 861 858 858 856 846 839 832 833 847 851 846 846 843 841 843 844 843 842 842 844 850 856 853 854 858 847 847 864 867 863 867 868 870 871 869 871 872 870 870 869 868 868 867
834 835 832 829 827 825 826 837 852 857 857 863 868 868 869 868 865 864 865 866 864 863 862 861 862 862 860 861 861 859 858 852 848 848 848 849 851 856 866 871 869 867 862 856 859 863 860 859 856 846 838 836 839 847 851 851 847 842 843 849 850 848 848 848 850 853 854 848 849 855 848 847 862 867 865 869 870 870 870 869 871 870 869 869 868 867 867 865
839 838 834 831 826 823 830 841 847 852 861 866 864 864 868 868 866 863 862 864 864 864 861 860 863 863 862 865 863 859 858 852 847 850 851 849 853 865 872 871 868 866 861 859 861 861 856 854 855 849 841 836 834 837 840 842 842 839 844 853 855 854 856 857 860 861 856 849 851 853 845 844 860 868 867 869 870 869 870 870 869 869 868 868 867 866 865 864
839 838 838 835 829 829 840 851 850 851 859 860 857 861 864 865 868 868 865 866 869 869 864 862 865 866 866 866 863 861 860 854 849 852 855 852 856 867 872 871 870 867 865 866 867 863 858 857 855 851 849 846 841 839 839 839 844 845 847 853 856 857 856 855 856 855 852 856 858 850 841 845 862 871 867 868 871 870 870 869 867 868 868 866 866 865 864 864
838 839 841 840 838 840 851 860 856 851 855 855 855 861 862 859 865 872 870 867 869 871 868 865 867 866 864 863 860 857 858 859 856 855 854 851 852 864 871 870 870 869 868 869 869 866 863 862 859 853 851 851 845 842 845 848 850 848 846 850 855 862 864 858 855 851 851 859 857 847 848 851 855 863 866 867 870 869 869 869 868 868 867 866 866 864 864 864
840 845 849 846 844 846 852 858 858 855 857 857 856 862 864 859 861 867 868 866 869 871 868 867 868 863 859 862 861 857 858 860 860 857 857 857 857 864 871 871 870 869 868 869 869 867 860 857 862 862 855 852 849 847 849 855 856 853 853 852 853 863 867 857 850 849 854 859 852 850 862 860 850 855 862 866 869 869 869 869 868 867 866 865 864 864 864 864
843 849 857 853 849 851 852 855 860 860 859 861 863 865 863 861 861 862 863 867 869 870 865 862 864 865 864 866 864 859 858 856 854 855 858 863 863 861 862 867 869 868 868 867 867 868 861 857 866 869 858 853 856 854 853 858 859 858 859 859 858 863 864 854 850 854 858 855 847 852 866 865 855 856 864 868 870 869 868 868 868 867 865 864 865 865 865 864
848 850 857 856 853 858 861 863 864 860 858 861 863 864 863 861 862 865 868 866 864 867 866 857 858 864 868 870 867 861 858 855 853 856 859 864 866 862 858 860 865 868 866 863 867 871 864 859 869 874 862 852 853 856 858 859 857 858 864 867 866 864 863 859 858 862 864 856 852 860 867 864 859 862 868 871 869 868 869 868 867 866 865 865 865 865 864 864
846 846 852 854 856 862 866 866 863 856 859 864 860 863 869 865 862 867 872 867 858 861 867 861 859 866 869 871 869 861 860 860 859 860 864 866 866 865 862 860 864 868 865 864 870 871 863 863 872 874 862 849 848 854 856 855 856 858 863 868 867 863 863 866 865 865 866 861 860 868 868 863 864 869 871 871 869 869 869 867 867 865 864 865 866 865 865 864
844 845 847 847 854 864 864 865 865 856 856 862 861 864 869 866 868 870 869 870 866 863 866 866 865 869 870 871 868 862 864 868 866 865 868 868 866 866 865 865 869 869 866 868 872 869 866 868 872 871 860 849 848 851 852 857 862 860 859 862 865 862 861 864 866 866 866 863 865 868 864 862 868 872 871 870 869 869 868 867 866 863 863 867 867 865 865 865
845 846 846 845 853 865 865 863 865 859 858 867 868 868 868 867 874 873 864 866 873 871 870 872 871 869 865 862 863 865 869 872 870 870 872 871 870 871 869 870 872 871 868 871 875 876 875 869 868 872 864 850 849 854 857 857 850 846 854 863 866 866 866 867 869 868 866 866 866 863 860 865 872 873 871 870 870 869 868 866 864 863 865 868 867 866 866 866
Wind_Speed
3 3 2 2 2 2 3 4 4 5 6 7 8 7 7 7 7 7 7 8 9 10 11 11 11 11 10 11 12 10 10 9 8 5 4 6 9 11 11 12 11 10 9 8 9 9 8 7 8 13 6 3 2 1 1 2 3 4 3 3 1 3 4 5 7 6 4 2 4 4 5 8 4 3 1 1 2 2 0 3 4 4 1 2 1 2 12 23
3 3 2 1 1 1 2 4 5 5 5 8 9 8 7 7 7 8 8 9 9 10 11 11 11 11 10 12 13 11 10 7 5 3 3 7 10 10 10 11 11 10 9 7 8 7 5 6 8 9 5 2 2 1 1 2 3 4 3 2 3 5 5 5 6 5 3 2 4 3 2 6 6 3 2 2 3 2 2 5 4 5 5 2 4 10 19 25
2 2 2 1 1 1 2 4 5 5 5 7 9 8 7 7 7 7 7 8 9 9 10 11 11 11 11 12 11 10 7 3 3 2 3 8 9 9 10 11 9 8 7 5 6 5 3 4 5 4 4 2 1 1 2 2 1 2 4 1 6 6 4 4 5 6 4 2 3 3 2 3 4 2 2 3 4 2 5 6 2 6 10 4 5 12 19 22
1 1 2 2 2 2 3 4 6 6 7 7 8 8 7 6 5 6 6 7 8 10 11 11 11 11 12 10 8 8 5 2 2 2 4 8 7 8 9 8 7 6 6 5 5 5 3 2 1 2 3 1 3 3 1 1 1 2 4 4 6 3 2 5 6 6 4 3 4 3 3 1 4 2 1 4 2 5 6 8 8 9 11 7 6 10 16 18
0 1 2 2 3 4 5 6 7 8 8 8 9 9 8 6 5 5 6 7 9 11 11 11 11 11 12 9 5 6 5 3 3 2 6 8 6 8 7 4 6 7 5 4 4 3 1 0 3 4 3 0 3 3 1 2 2 2 2 5 5 4 2 5 5 4 3 3 3 4 3 2 1 1 3 6 5 7 6 7 10 11 9 9 9 11 14 14
2 1 2 3 4 5 6 7 8 9 9 9 10 10 8 6 5 5 6 8 10 11 12 12 12 11 11 9 4 3 3 0 2 3 6 7 7 9 6 5 8 8 4 3 3 2 2 3 3 2 2 1 0 1 3 2 2 1 3 2 4 4 2 2 4 3 4 6 4 5 3 1 2 3 3 7 9 9 6 6 7 7 6 10 12 12 11 11
4 3 3 4 5 6 7 8 9 9 10 11 11 10 8 6 6 6 7 8 10 11 13 12 12 12 11 8 2 1 2 2 3 4 7 8 8 9 6 6 8 7 2 2 4 3 3 4 1 4 4 1 3 2 2 3 3 2 3 3 4 4 4 2 3 3 5 5 4 3 1 1 2 3 1 4 12 11 8 3 3 1 5 11 11 11 11 12
6 5 5 5 6 7 8 8 9 9 10 10 11 10 9 7 7 7 8 9 11 12 12 12 11 12 11 5 1 3 2 3 3 5 7 8 8 9 7 5 7 5 1 5 5 1 1 2 1 3 3 1 4 2 0 2 3 2 4 3 2 3 4 1 2 2 3 2 2 2 0 4 5 1 2 9 12 8 8 4 4 5 7 9 9 10 10 11
6 6 6 7 7 7 8 8 9 9 10 10 10 10 9 8 8 9 9 10 11 12 12 11 10 12 10 3 4 3 3 2 4 7 8 9 9 8 6 6 8 7 5 7 6 2 0 1 2 3 3 2 4 2 0 0 2 3 3 2 2 1 3 1 1 0 1 2 2 1 4 5 3 1 4 10 8 6 3 3 5 6 7 6 6 8 8 9
6 6 6 7 7 8 8 9 9 10 10 11 10 10 9 9 9 9 10 10 11 11 11 10 9 11 8 3 5 2 3 3 5 7 9 10 10 7 6 9 10 10 8 7 7 6 2 1 1 2 4 2 3 1 1 2 2 1 3 3 3 3 4 2 0 2 2 2 2 3 6 5 3 2 4 6 5 5 5 6 4 6 5 5 5 6 8 8
6 6 7 8 8 9 10 10 10 11 11 11 11 10 9 8 8 9 9 9 10 10 11 9 8 9 6 2 4 2 3 5 5 6 9 10 10 8 7 10 10 12 11 7 7 7 6 2 1 3 1 1 2 2 1 3 1 2 3 1 2 6 4 1 1 4 1 1 3 5 4 5 3 0 6 5 6 5 7 8 6 6 4 4 4 3 3 3
6 7 8 9 9 10 11 11 11 12 12 12 12 11 10 9 8 9 8 7 7 10 11 10 8 7 4 3 3 4 4 5 5 7 10 11 10 9 7 8 9 10 10 7 6 7 9 6 2 3 1 2 2 1 1 1 2 1 2 1 6 8 4 3 2 3 2 1 4 5 2 5 1 5 8 6 7 5 8 8 7 6 4 3 3 4 4 3
6 7 8 9 9 10 11 12 13 13 12 12 12 11 10 9 8 9 8 6 7 10 12 10 8 5 2 2 2 2 4 4 6 8 10 11 10 7 5 6 7 8 7 6 6 7 10 7 3 4 1 4 1 1 2 3 3 1 2 2 4 7 5 5 2 1 2 1 3 3 3 6 6 8 8 7 6 3 6 6 6 6 5 6 6 6 6 7
7 8 8 8 9 10 12 13 14 14 13 12 12 11 10 10 9 8 8 8 9 11 12 8 5 2 2 3 2 1 3 4 7 10 11 12 11 6 3 5 6 6 6 6 5 6 8 5 5 4 3 3 1 1 4 5 3 1 1 2 2 2 4 6 2 3 3 0 1 5 1 7 7 8 8 8 4 3 4 6 6 6 7 6 6 7 6 9
8 9 8 7 8 10 13 14 14 14 13 12 12 11 11 10 10 9 9 10 10 12 11 6 3 1 2 3 1 2 4 4 7 12 12 12 12 8 7 10 7 4 4 5 3 5 6 3 4 4 1 2 3 3 4 4 3 3 1 3 3 2 5 8 3 3 3 0 4 6 2 7 7 7 8 8 4 5 6 6 6 7 8 7 7 8 7 9
8 8 7 7 9 12 14 14 14 13 12 12 12 12 11 11 11 11 11 11 11 10 7 3 3 2 2 2 2 3 4 4 9 12 10 10 10 8 12 13 7 2 3 3 1 2 5 5 3 2 1 2 4 4 3 3 4 3 1 3 2 2 3 6 3 1 1 0 3 3 3 5 4 6 8 7 4 7 8 6 7 7 7 8 7 8 8 8
8 7 6 8 11 13 14 14 13 12 12 12 13 13 12 12 12 10 8 8 8 5 1 1 2 2 1 2 3 3 4 7 12 12 8 9 9 9 11 8 4 5 4 3 1 1 4 4 1 0 2 2 2 4 3 3 4 3 2 1 3 3 2 4 3 3 5 2 2 2 2 7 4 7 10 9 5 9 9 7 8 7 7 8 8 8 8 8
7 5 5 9 12 14 15 13 12 12 13 13 14 14 10 9 8 4 3 5 3 1 2 1 3 2 1 4 3 5 9 13 14 9 5 9 9 9 7 2 3 6 5 4 2 1 2 2 1 1 3 3 2 4 2 5 3 2 2 2 3 2 3 4 4 2 3 2 2 0 3 9 6 8 9 9 5 9 9 7 8 8 9 8 8 8 7 8
5 4 6 10 13 14 14 12 11 12 13 14 14 10 5 5 3 0 5 7 2 1 0 1 3 1 3 4 4 10 13 11 8 4 6 12 10 6 3 2 3 3 3 2 2 2 1 2 3 1 2 2 2 4 6 7 5 3 4 4 3 4 4 5 5 5 1 2 3 4 6 7 7 9 7 8 6 9 8 7 8 7 8 8 7 7 7 9
3 4 7 11 13 14 13 11 11 12 13 15 13 6 3 4 4 2 6 7 2 1 1 1 1 1 3 4 6 12 11 5 2 2 10 15 9 2 2 3 5 5 3 1 2 2 2 2 2 4 6 6 5 6 5 4 4 3 2 2 3 4 5 5 3 5 1 2 4 4 2 5 7 9 7 5 5 8 7 8 8 7 7 7 7 8 8 9
3 5 9 11 13 14 12 10 11 11 11 14 12 5 2 1 2 3 5 4 2 1 0 3 3 2 4 5 7 9 5 2 2 4 12 14 5 1 2 3 5 4 2 1 2 3 4 1 4 6 7 5 2 4 4 3 3 3 1 1 3 3 6 6 1 5 3 2 4 1 3 5 7 7 5 3 6 7 5 8 8 7 7 6 7 8 8 7
4 7 10 12 13 14 11 8 10 11 8 11 10 7 5 4 3 1 0 2 4 1 1 3 1 2 5 4 4 5 2 3 4 4 14 14 5 2 3 4 4 2 3 1 1 4 3 3 6 4 3 3 3 3 4 3 3 3 1 0 3 3 4 5 2 4 3 1 4 2 4 4 6 5 5 5 5 5 5 6 6 6 8 6 7 7 7 7
5 8 11 12 12 13 11 6 9 11 7 9 9 7 5 4 4 3 3 1 5 3 1 2 0 3 5 1 3 5 3 3 2 5 13 12 5 2 1 4 3 1 4 2 2 1 2 4 4 1 2 2 3 4 5 4 2 1 2 1 4 3 1 3 3 4 2 1 2 2 4 3 4 5 6 6 5 6 6 8 7 6 7 6 6 6 7 8
7 10 11 12 12 12 9 5 7 10 7 7 8 6 5 4 4 4 2 2 3 4 1 1 1 1 2 2 4 5 2 1 1 5 10 8 1 1 2 2 2 1 2 0 4 4 5 4 1 3 3 2 1 4 4 3 3 3 4 4 4 3 2 4 3 4 3 2 0 3 4 2 3 4 4 5 6 7 7 8 8 7 5 5 6 7 7 7
9 10 11 11 11 11 8 4 5 10 7 4 7 5 4 3 3 4 2 3 2 4 2 1 0 0 2 3 5 3 0 1 2 4 7 6 1 2 1 1 1 0 3 0 2 3 5 3 1 2 4 4 3 2 0 4 1 4 4 6 6 3 1 1 4 5 4 3 1 3 2 3 3 2 3 2 5 6 5 7 7 6 6 6 7 7 6 6
9 10 10 10 10 10 7 2 5 10 5 2 5 3 1 2 2 3 2 4 1 4 3 1 0 2 4 4 4 1 1 2 2 2 4 5 1 1 1 2 1 1 3 1 0 2 2 3 3 3 3 5 4 2 3 5 3 3 3 3 5 4 2 1 3 2 0 2 2 1 1 4 3 2 4 3 5 6 5 6 6 5 6 6 6 5 5 6
9 9 9 10 9 9 6 2 6 8 3 2 6 4 1 2 2 2 2 5 2 2 2 2 1 3 4 4 4 2 1 4 2 2 3 4 4 1 1 3 1 1 1 1 2 1 0 4 5 4 5 4 2 2 3 5 5 2 3 3 4 2 1 2 2 2 3 2 3 1 3 3 3 4 5 4 6 5 5 5 4 4 5 5 5 6 6 5
8 9 9 10 9 9 6 3 5 4 2 5 6 3 2 4 3 1 4 4 2 1 1 3 1 2 4 5 5 3 2 5 2 1 4 5 4 2 2 1 2 1 2 2 2 4 0 2 2 2 4 2 2 3 3 5 2 4 3 3 1 1 3 3 4 3 1 2 4 4 2 2 4 1 3 5 5 5 5 4 3 3 4 4 5 6 6 5
8 9 9 10 8 9 7 4 5 5 4 4 3 1 2 3 1 3 5 2 1 1 1 2 1 2 6 6 5 4 3 3 2 3 4 5 4 4 2 1 4 2 2 2 3 3 1 1 2 2 1 2 3 3 3 5 1 2 3 2 1 3 2 2 4 2 2 2 4 5 1 2 3 1 4 4 4 6 6 5 4 3 2 3 5 5 5 5
8 8 9 9 8 9 7 3 7 8 5 4 3 2 2 1 3 5 3 1 1 1 1 1 2 3 7 7 5 6 4 3 3 5 4 3 5 6 2 1 4 4 2 4 1 2 2 2 1 2 1 2 2 2 3 4 3 0 3 2 3 4 4 3 2 3 3 2 5 5 2 2 1 3 7 4 4 7 8 5 4 3 1 1 4 5 5 5
9 9 9 9 9 10 6 4 8 9 6 5 3 1 1 1 4 6 1 2 1 2 3 3 3 4 7 5 3 5 5 5 5 5 5 4 6 7 4 2 3 4 4 5 3 3 4 3 1 1 1 1 1 1 1 1 1 2 3 3 3 4 3 3 4 3 2 3 5 4 1 3 1 3 4 3 1 7 10 8 6 5 3 3 4 5 4 4
9 9 9 9 9 10 7 6 9 9 8 6 2 2 4 2 3 2 2 4 2 3 2 2 3 4 5 3 2 5 4 4 4 5 3 3 4 4 4 2 2 4 4 3 4 5 2 1 2 3 1 1 1 2 3 3 4 4 3 4 3 4 4 2 3 1 2 4 3 0 1 1 3 2 2 4 2 8 8 8 8 6 5 5 5 5 4 3
8 8 8 8 9 10 9 8 10 10 9 4 1 4 6 4 1 1 3 3 2 2 1 1 3 3 3 3 4 5 3 2 4 4 1 1 4 2 3 2 1 2 2 1 2 5 3 4 3 2 1 1 2 1 3 2 3 4 1 3 2 2 3 4 4 2 3 4 3 1 2 2 2 1 3 5 2 7 8 7 7 6 6 6 5 5 4 4
8 8 6 6 9 11 11 10 10 11 9 2 3 4 6 4 1 1 3 3 2 3 2 1 4 5 3 2 3 4 2 2 4 4 3 2 4 3 4 5 4 3 1 1 1 2 2 4 2 1 1 1 2 1 2 1 2 2 2 4 3 2 1 4 3 2 4 5 4 4 1 2 1 2 4 4 3 6 7 5 5 5 5 5 5 5 5 4
7 6 5 7 11 13 12 11 11 12 8 2 5 5 4 1 3 1 2 4 2 4 4 1 2 4 4 3 3 2 1 2 3 4 4 3 2 1 2 4 5 3 2 2 2 0 1 4 4 1 1 1 1 1 2 3 2 1 2 3 0 3 3 2 3 4 2 3 3 2 1 1 0 2 4 3 4 6 6 4 5 5 5 5 6 5 5 4
6 3 4 9 13 14 14 12 12 13 6 4 7 5 2 2 1 2 2 2 1 3 5 5 4 4 4 4 4 4 2 2 3 3 3 2 1 1 1 2 2 3 3 2 1 1 1 4 4 2 2 1 2 2 0 1 0 0 1 1 3 3 5 1 2 1 2 1 3 1 2 1 1 1 2 3 5 5 5 5 6 5 5 6 5 4 4 3
4 0 2 11 16 15 14 13 13 10 4 6 6 2 2 1 1 2 1 1 1 0 3 4 3 2 3 3 4 5 4 2 2 3 2 1 0 0 1 2 1 1 0 1 1 1 1 4 5 1 0 2 2 1 2 1 1 2 1 3 2 2 4 3 1 3 3 1 3 1 2 2 1 1 1 2 3 4 4 5 5 4 5 5 4 3 3 2
3 0 1 10 17 17 15 14 12 5 5 7 4 2 1 0 0 1 1 0 0 1 4 1 2 2 0 1 4 5 5 3 4 3 2 2 1 2 1 2 1 1 2 2 1 1 2 3 7 1 1 4 2 2 3 4 2 2 2 3 1 1 1 1 0 1 2 2 4 4 2 3 3 3 4 5 3 3 3 4 4 4 4 3 3 3 2 1
2 2 1 8 17 19 16 12 7 5 7 6 2 1 0 1 1 1 1 1 1 1 2 1 1 2 0 1 2 4 3 2 3 3 2 1 2 1 3 0 1 1 3 1 1 1 1 0 5 3 2 3 4 2 2 4 4 3 1 2 1 3 3 0 0 2 1 2 3 4 4 2 3 3 5 5 3 3 2 3 3 2 2 2 2 2 1 2
2 2 1 9 19 18 13 8 7 7 6 3 2 2 1 1 2 2 1 0 1 1 1 1 0 2 2 1 1 2 2 1 1 2 0 0 2 1 2 1 1 3 4 2 2 1 1 1 3 5 3 3 2 1 1 2 2 2 2 2 2 1 0 0 0 1 1 1 2 3 5 4 2 1 4 6 4 4 3 3 2 0 2 3 3 2 2 3
3 3 2 12 21 15 7 8 7 5 3 3 1 0 1 1 1 3 2 1 1 0 1 2 2 0 1 2 1 1 1 2 1 0 1 1 1 1 1 1 1 2 3 3 3 1 1 1 3 4 4 3 4 4 2 3 3 3 1 1 2 0 2 1 3 2 1 1 3 1 5 5 2 2 4 6 4 3 3 4 2 2 1 3 4 3 3 2
5 3 3 16 21 9 6 6 2 2 4 2 1 0 1 2 1 2 2 1 1 0 1 2 2 1 2 1 2 1 1 2 2 0 1 2 1 1 1 1 2 1 1 1 1 1 1 2 0 4 5 5 7 5 0 2 3 4 1 1 3 1 2 2 4 3 1 1 2 2 2 5 3 1 3 4 3 3 3 4 2 3 3 3 4 4 3 2
3 1 4 19 18 3 8 6 3 4 3 1 0 0 1 1 1 1 1 1 1 0 1 1 1 0 1 1 1 1 1 1 3 2 2 3 2 2 2 1 1 1 2 1 2 1 1 2 1 4 5 4 6 4 3 2 3 3 1 1 2 1 1 4 4 2 1 3 1 0 3 4 3 2 3 3 2 2 1 2 1 3 4 3 4 5 4 4
2 3 3 17 17 4 6 4 1 2 2 2 2 2 2 1 1 1 1 1 1 1 1 1 1 0 1 1 1 2 1 1 2 2 1 2 2 1 1 1 0 1 1 0 1 1 1 0 1 3 5 6 6 6 5 5 3 1 1 2 2 2 3 2 1 2 0 4 2 1 4 4 2 2 2 2 2 2 2 2 2 3 4 4 5 5 5 5
2 0 3 12 18 11 5 3 5 3 0 1 3 3 3 1 0 1 0 0 0 1 1 1 0 0 1 0 0 2 1 1 2 2 2 1 2 1 2 2 1 0 1 2 1 1 1 1 1 1 2 3 4 4 4 4 3 1 2 3 3 2 2 1 0 3 0 3 1 3 5 4 1 1 1 0 1 2 4 4 4 4 4 5 5 5 5 4
2 2 2 7 11 10 3 1 4 4 3 2 3 2 2 2 2 1 1 0 1 1 0 2 1 0 1 2 2 3 3 1 2 2 2 2 3 1 1 2 1 0 3 3 2 3 1 1 2 4 5 4 5 7 4 1 3 5 5 6 5 2 1 3 3 1 3 1 1 4 4 3 4 4 4 3 2 4 4 4 5 5 5 6 5 5 4 3
2 2 2 2 4 5 4 4 4 3 2 3 2 1 2 2 3 1 1 1 0 1 0 1 1 1 1 3 3 3 3 2 2 2 1 3 3 3 2 1 1 2 3 2 1 3 3 2 3 3 6 7 7 9 5 2 3 4 4 6 5 3 2 5 3 4 4 2 4 5 1 2 6 5 3 3 4 4 4 5 6 6 6 6 5 4 4 4
3 2 1 0 1 2 2 3 3 4 4 3 2 1 2 3 3 1 1 1 2 1 0 1 3 2 0 0 1 2 4 4 3 2 1 1 3 4 3 1 1 3 2 2 2 3 4 2 3 1 5 8 7 8 7 3 2 1 1 3 5 3 2 5 5 5 5 2 6 4 1 4 9 5 1 2 4 4 5 6 6 6 7 6 5 4 4 5
3 3 1 2 2 3 1 2 2 5 5 4 2 1 2 2 3 2 1 2 3 2 1 1 4 3 1 1 1 1 3 3 4 4 1 1 2 2 3 2 1 3 3 2 3 2 4 2 2 0 5 8 6 6 3 2 1 1 1 3 4 3 4 5 4 3 4 4 5 4 6 9 7 2 1 3 5 5 5 5 5 7 8 5 4 4 5 6
2 3 1 3 4 2 1 2 3 4 3 3 2 2 1 1 2 3 1 1 1 3 2 1 6 5 2 2 3 3 5 3 4 6 2 0 3 1 0 2 1 4 5 3 2 2 1 2 1 2 4 8 5 5 3 1 3 2 2 4 4 3 1 1 1 0 0 4 5 4 7 8 3 1 1 4 4 4 5 6 7 8 7 5 5 5 6 8
3 3 3 5 3 3 2 2 3 4 3 3 2 1 1 1 2 2 2 2 2 2 1 1 5 5 2 1 3 6 6 4 5 7 4 2 3 3 2 1 1 3 5 2 1 3 2 1 2 5 4 6 4 6 8 4 2 2 2 4 3 1 1 1 1 1 1 5 7 7 6 5 1 0 4 5 4 6 8 8 10 10 6 4 5 6 7 8
3 2 2 5 3 3 2 2 3 3 2 2 1 0 1 2 2 1 1 1 1 2 3 3 1 2 3 4 4 5 5 5 6 6 4 3 3 3 2 2 1 0 1 1 1 2 2 1 2 3 2 6 5 7 9 5 5 1 4 3 3 2 1 2 2 3 3 3 5 6 5 2 1 4 7 7 7 9 8 8 10 9 5 4 5 7 8 8
Wind_Direction
159 146 124 101 75 52 31 16 9 7 7 360 352 338 329 323 321 321 317 320 318 320 326 326 332 334 333 332 327 308 297 297 293 306 354 351 337 336 334 327 327 328 328 325 330 338 345 356 353 356 18 111 22 332 22 26 76 55 82 122 219 193 204 187 180 192 171 246 241 222 185 169 215 243 197 331 23 34 294 285 281 281 342 103 192 168 154 158
160 173 174 139 83 39 11 2 0 357 357 356 353 342 332 326 319 320 316 319 321 324 328 328 334 334 331 334 334 322 303 295 295 295 347 342 341 344 332 325 327 325 327 330 336 355 6 335 330 355 29 86 352 351 35 1 71 85 114 133 232 201 211 198 175 190 169 219 219 208 186 181 204 190 114 234 279 351 232 272 311 281 271 60 94 139 152 158
148 179 204 219 256 318 330 343 350 341 340 348 352 347 338 331 325 327 327 329 335 337 335 335 338 337 336 335 341 339 313 298 321 286 334 346 345 342 331 326 329 328 327 328 333 348 344 298 307 356 36 77 345 6 60 14 39 142 125 143 244 213 222 225 182 201 208 184 176 195 169 188 222 168 114 212 253 284 216 237 225 243 247 213 126 143 153 159
155 194 229 257 276 300 309 323 335 332 332 336 343 345 338 331 331 337 341 343 346 345 338 336 337 338 339 336 343 346 345 19 325 281 355 349 344 342 333 328 343 338 320 321 330 332 316 284 287 37 51 47 335 14 88 310 344 137 134 187 232 190 211 236 193 200 217 178 159 154 121 218 241 177 173 165 216 278 240 228 206 219 231 195 162 162 160 162
196 259 269 286 294 302 310 317 325 329 328 327 332 335 333 326 324 335 342 346 348 347 341 335 336 340 341 338 326 327 7 36 299 336 0 344 346 344 333 328 343 332 314 320 326 332 332 99 88 55 53 183 340 21 198 287 82 134 221 201 199 150 205 245 186 189 194 134 121 128 144 218 192 174 198 164 200 249 229 219 207 216 220 178 169 169 164 168
34 347 313 305 310 311 315 319 325 330 327 326 326 327 330 317 311 323 329 338 345 348 345 338 337 340 341 341 315 312 41 133 292 1 346 343 351 343 337 322 331 330 314 312 328 10 38 35 66 79 52 96 204 162 215 311 64 186 284 234 202 178 206 239 156 188 160 119 143 167 190 144 82 278 215 178 222 236 220 202 196 226 210 162 157 159 165 176
37 18 350 329 325 323 325 328 330 330 327 326 326 329 329 315 309 313 320 329 336 344 346 344 342 341 343 344 326 39 81 236 312 351 335 350 350 343 348 326 333 338 312 347 358 32 54 29 54 147 88 70 199 181 207 327 45 125 261 248 209 192 208 212 129 160 140 136 198 178 110 147 189 268 353 223 240 243 245 212 131 175 150 144 146 160 177 184
32 21 6 349 340 337 334 332 330 327 328 331 332 333 327 317 307 306 316 323 329 337 342 348 347 344 346 350 41 19 345 268 332 338 333 351 353 354 350 333 353 355 41 25 9 58 101 45 176 159 100 211 189 157 40 342 23 127 219 230 167 192 233 245 98 132 139 169 204 105 307 241 220 227 321 259 253 259 260 208 118 89 113 135 150 172 183 187
22 15 5 355 347 341 335 330 328 325 330 335 335 332 325 318 307 307 314 318 327 328 333 344 347 350 346 357 79 16 297 299 349 340 339 345 355 1 350 2 17 20 47 23 13 57 111 170 197 180 174 202 167 160 21 21 280 206 185 183 139 280 294 30 101 111 3 258 134 108 288 282 257 287 283 263 266 293 298 142 136 112 118 144 161 178 183 190
9 3 358 352 345 339 334 330 328 326 329 331 331 330 322 315 307 307 311 317 324 320 324 330 338 352 342 352 64 13 281 343 342 337 340 341 352 357 2 19 20 24 30 17 28 48 33 218 202 139 149 150 136 134 61 149 213 166 116 120 115 327 309 86 312 303 343 281 164 185 271 294 315 339 272 270 312 335 35 71 94 113 130 153 164 185 187 193
352 350 346 343 341 338 335 333 330 328 327 326 327 326 319 312 304 304 307 315 320 320 323 318 327 345 339 39 90 208 289 342 327 337 338 337 349 351 0 10 13 21 20 23 41 40 20 316 175 107 140 187 132 43 299 194 126 92 112 115 351 346 310 159 273 280 306 275 180 171 248 300 360 5 233 262 338 359 65 59 51 86 112 150 159 173 177 203
343 340 337 336 338 338 337 335 332 328 325 324 324 322 319 311 301 300 301 304 317 326 324 317 322 328 339 46 141 221 305 336 331 344 341 337 345 342 345 354 1 12 13 26 27 20 11 343 120 108 280 190 147 25 223 169 78 91 87 344 308 357 336 258 267 247 179 188 187 163 293 316 274 228 245 279 327 1 76 63 43 76 92 96 93 59 44 16
339 337 334 335 339 339 337 333 330 326 321 319 317 316 316 309 300 298 294 291 308 321 321 317 314 321 15 347 234 250 317 339 349 350 348 344 343 332 322 336 347 351 355 12 3 2 4 350 115 126 114 109 144 210 102 49 50 273 45 57 312 1 338 296 7 149 160 194 197 151 313 294 257 256 278 312 322 360 71 48 34 68 77 65 65 61 47 37
342 340 337 339 343 339 336 331 326 322 318 314 309 307 306 302 296 292 290 288 296 308 313 313 306 341 84 265 262 359 331 349 359 356 355 352 352 344 311 323 329 328 330 338 344 354 360 10 94 96 70 91 167 95 42 10 22 345 356 36 1 357 288 305 352 154 151 216 115 118 232 271 269 281 302 329 341 117 76 29 36 68 74 74 76 76 64 51
340 340 341 344 343 341 338 332 326 321 319 313 306 299 296 295 286 286 290 288 293 301 305 296 266 53 56 285 299 1 334 352 356 354 354 351 355 351 331 330 322 323 336 330 341 357 359 27 77 74 54 8 56 71 22 352 11 31 320 308 351 179 269 310 314 159 158 317 49 96 213 272 277 285 308 339 16 99 77 42 61 79 82 88 87 83 79 67
336 339 343 346 348 348 344 336 330 326 325 318 309 302 295 290 285 287 289 287 294 298 298 269 230 116 72 296 327 355 346 349 340 340 343 346 347 334 329 331 324 328 345 337 330 353 15 45 65 83 131 35 68 87 35 3 341 1 74 257 280 185 285 318 324 354 77 169 14 67 222 272 306 312 328 355 43 92 84 70 80 86 88 92 92 89 87 78
337 338 344 350 351 352 348 342 337 333 333 326 314 308 298 292 291 287 289 297 297 290 266 196 209 115 73 317 345 341 331 323 323 326 334 347 337 321 325 330 340 340 347 15 45 91 27 44 100 307 60 53 86 93 41 319 292 326 19 247 248 199 222 299 306 341 37 74 295 21 231 254 299 340 348 4 47 93 92 89 91 93 94 93 93 91 85 80
336 337 345 351 351 353 351 346 344 342 342 336 324 317 307 301 296 277 317 332 305 198 111 66 37 80 306 348 353 307 310 311 317 327 348 349 334 325 329 328 342 345 10 33 35 73 12 22 86 24 9 7 54 96 151 234 226 245 248 235 282 270 218 260 279 281 45 67 241 51 258 259 305 346 352 358 31 91 95 98 99 95 94 94 91 89 82 76
335 339 344 349 352 353 350 345 348 347 348 351 339 326 321 330 333 116 23 22 48 120 83 312 12 144 265 311 304 308 312 306 316 346 3 354 342 341 18 42 1 21 59 23 337 16 29 34 54 52 290 278 216 174 193 207 180 190 211 181 234 273 259 242 250 265 216 104 246 229 246 276 327 337 345 354 28 89 97 96 94 90 91 89 85 82 77 74
331 339 344 349 350 350 347 343 350 350 352 358 351 343 3 1 5 347 3 26 88 152 61 231 226 243 299 303 309 329 329 307 317 14 4 355 346 16 60 25 21 46 72 207 274 359 60 43 268 232 233 240 236 208 183 170 143 119 138 165 232 243 276 264 254 297 284 129 271 244 247 323 336 324 328 350 44 80 92 94 91 89 87 85 86 80 75 77
323 337 343 346 346 348 345 340 353 354 354 2 7 35 87 75 45 319 326 348 261 176 6 247 208 239 282 280 313 344 352 334 343 13 6 354 346 9 334 17 35 12 343 227 256 358 52 35 247 236 233 229 222 180 147 111 87 63 125 235 302 232 256 267 214 316 329 129 289 331 48 350 339 328 335 27 71 67 73 95 95 92 87 82 83 79 77 80
320 334 341 343 344 347 340 334 354 355 356 15 37 86 116 133 126 181 227 329 286 273 306 275 225 279 280 264 318 354 40 4 337 347 0 357 9 9 315 40 62 287 326 12 322 358 20 255 246 245 211 160 70 92 105 68 83 68 91 133 304 261 274 293 322 333 347 134 280 348 56 2 344 359 22 35 69 63 44 76 84 86 87 78 79 81 83 85
323 335 341 343 343 343 333 320 346 353 7 33 57 97 115 124 134 148 116 88 291 306 344 319 21 308 314 355 1 7 45 26 312 312 353 3 20 30 42 57 61 269 348 9 184 269 300 256 248 241 155 143 25 32 65 50 54 134 167 175 271 278 320 289 317 333 322 198 271 40 62 19 350 24 42 20 48 72 49 60 60 60 81 84 85 83 85 91
328 337 341 342 342 341 331 300 332 354 13 47 60 86 122 137 149 156 109 83 303 301 253 240 192 209 307 327 353 10 59 78 252 301 353 17 32 5 93 94 65 78 326 12 149 190 243 249 255 54 54 101 48 8 59 77 340 288 198 192 236 261 231 224 289 326 321 329 159 99 47 358 360 36 61 27 47 70 58 67 61 43 59 78 75 65 65 84
330 335 338 342 342 341 334 291 327 351 359 55 60 68 115 127 162 170 101 62 318 301 292 259 236 83 300 318 340 351 143 312 240 281 347 23 12 340 47 142 70 21 256 183 116 236 265 283 351 69 43 61 99 314 251 153 299 309 237 207 203 203 220 259 338 357 12 338 249 117 13 304 335 51 117 79 70 75 56 66 65 42 44 58 61 56 58 70
327 331 336 342 343 343 340 280 328 342 345 55 34 17 112 116 148 172 90 59 334 298 337 308 204 357 332 336 337 341 74 345 274 298 1 21 359 114 85 291 22 37 224 196 20 253 288 1 37 104 86 62 63 302 244 154 113 313 265 192 153 123 84 356 352 7 32 259 263 105 178 259 293 219 183 143 101 92 66 62 64 53 48 51 53 52 58 73
328 331 338 341 344 351 348 293 324 337 345 346 349 343 219 141 138 182 56 39 356 296 347 304 303 15 336 324 344 81 40 310 319 25 19 13 346 67 45 306 326 353 238 102 355 275 218 23 31 61 74 61 30 299 228 137 111 251 249 119 114 104 263 232 186 212 236 258 306 339 158 212 264 222 189 145 114 103 89 77 67 60 56 50 47 49 58 74
331 331 338 341 343 355 0 340 337 352 355 328 336 356 133 153 178 157 80 60 332 4 30 297 301 18 331 337 16 69 290 312 38 342 349 27 2 16 30 305 174 269 332 94 263 272 6 21 6 71 65 30 264 237 185 129 108 253 218 127 153 216 219 188 161 203 283 3 311 296 146 188 262 239 134 134 138 149 151 141 127 97 72 54 46 52 63 71
332 330 335 340 342 355 3 8 10 8 350 346 1 23 143 165 207 62 77 104 305 24 182 304 340 317 341 3 15 23 347 356 43 301 338 45 23 35 66 218 133 137 345 83 213 250 42 306 237 136 103 268 257 249 170 145 240 248 147 122 37 59 71 92 117 148 45 24 268 270 213 183 263 231 145 158 186 182 171 165 165 148 104 57 49 55 70 75
328 329 333 343 353 358 355 359 9 4 352 1 352 295 185 136 58 61 44 278 344 336 250 21 359 327 5 19 350 354 23 355 325 330 355 32 5 26 83 208 99 107 352 19 175 247 333 305 207 99 147 229 257 278 177 178 242 150 100 31 12 35 37 44 72 97 62 311 258 264 258 139 289 231 176 184 214 175 157 157 172 168 136 52 45 56 72 84
323 330 339 353 5 3 356 343 353 354 348 340 312 269 129 28 59 85 34 297 4 331 2 17 343 5 29 35 332 344 10 331 330 9 13 4 1 11 28 15 45 54 7 5 347 319 3 13 320 316 273 169 41 307 196 221 344 79 70 21 2 348 15 24 355 43 86 266 264 268 227 149 238 247 205 263 286 148 151 153 158 163 150 94 59 62 71 84
321 331 343 358 9 7 5 346 343 348 342 328 305 83 84 30 30 89 290 323 349 332 359 330 319 8 11 13 347 331 339 333 357 47 39 24 32 19 27 28 16 19 5 340 328 340 7 274 290 315 280 142 73 335 338 4 32 46 36 46 28 343 3 355 316 338 200 243 256 312 50 174 214 213 286 310 54 126 137 142 149 157 142 98 67 63 68 74
321 333 343 359 8 5 3 350 344 348 340 323 105 59 72 76 30 250 284 322 352 326 345 297 315 346 345 1 358 329 328 338 1 37 68 83 66 32 357 5 68 38 350 287 339 354 339 293 314 359 316 85 92 34 332 330 13 7 10 95 76 25 3 305 282 301 280 266 265 303 5 293 241 59 346 329 46 114 118 127 145 139 121 100 74 66 65 65
322 337 348 6 8 1 357 351 347 346 338 359 99 50 60 70 277 291 306 279 286 332 5 353 322 342 25 34 336 329 7 337 350 21 8 30 50 13 335 347 16 49 45 20 16 33 11 302 303 74 306 7 63 144 178 164 1 322 186 132 118 151 188 267 240 239 279 282 292 296 290 242 252 4 348 339 41 90 99 114 119 103 102 95 69 56 52 56
329 342 8 15 6 357 352 348 345 343 339 49 71 60 83 104 266 269 284 266 297 331 320 324 5 14 9 337 320 351 50 302 343 31 23 33 66 17 346 332 342 29 71 32 324 105 72 271 266 308 325 47 42 252 131 91 27 269 165 100 84 184 163 219 212 199 245 308 309 279 198 187 204 19 8 29 73 78 78 83 80 73 75 71 55 41 38 46
331 350 32 16 5 355 350 344 338 339 346 80 65 55 137 203 245 172 228 280 345 320 321 347 38 40 343 315 330 358 20 286 336 23 25 45 146 269 345 273 301 21 73 97 280 348 28 279 281 346 346 86 154 232 56 54 297 175 105 251 237 179 133 140 277 332 56 349 294 237 145 33 62 91 25 47 77 73 63 64 66 66 66 60 49 35 31 42
332 334 35 12 3 354 347 340 334 338 20 84 80 98 206 216 112 167 227 324 312 336 26 9 5 19 336 311 311 327 344 322 339 17 7 359 92 44 347 278 240 34 14 145 256 254 141 277 296 33 349 270 190 184 350 344 149 97 268 240 216 111 94 103 306 349 19 280 275 300 179 202 176 157 182 123 102 72 58 62 57 55 59 53 42 32 25 40
326 159 23 4 0 354 346 338 333 350 66 71 78 136 204 318 51 195 200 83 288 53 64 47 309 13 50 286 292 305 337 346 347 13 10 336 355 128 108 299 231 103 330 348 298 280 117 283 301 334 191 289 329 72 346 331 27 103 216 234 106 108 305 22 51 310 343 291 285 315 288 218 201 194 188 183 157 98 60 60 60 46 42 41 26 14 357 351
6 51 2 350 354 351 345 339 345 45 69 63 84 155 310 281 269 240 205 110 95 88 71 217 283 7 32 201 284 303 343 4 340 357 42 12 336 121 114 338 295 351 338 10 175 264 76 141 288 280 228 301 351 36 324 312 345 25 354 329 62 158 192 198 133 183 222 284 287 318 324 266 233 216 179 174 164 137 103 67 75 52 30 21 350 329 275 281
67 43 288 340 349 344 341 3 37 56 65 85 156 183 353 287 277 292 261 292 91 107 45 197 236 349 322 320 319 293 345 6 309 334 357 330 322 3 79 77 305 315 324 26 89 325 16 119 256 287 317 335 331 319 217 241 302 3 24 347 314 269 303 29 10 127 136 242 252 316 307 265 271 316 151 149 153 164 149 107 104 32 23 6 333 279 247 284
74 46 290 340 345 336 352 39 46 56 86 97 120 183 22 41 314 340 346 28 62 152 138 145 156 209 278 325 318 238 310 324 282 291 275 287 3 339 346 123 170 301 329 27 49 2 10 140 229 290 327 311 265 264 230 201 184 156 153 207 194 169 34 14 305 319 66 173 187 230 292 268 293 29 127 137 150 177 153 122 100 336 354 348 324 270 246 294
70 66 306 344 349 352 61 54 16 63 95 82 45 40 12 50 53 349 355 47 60 56 78 114 154 181 187 236 271 241 291 294 255 253 253 236 219 241 258 159 158 147 40 23 319 272 136 101 228 278 274 266 281 299 334 156 137 122 110 122 129 95 83 154 255 278 330 289 191 155 281 268 271 78 122 129 152 170 155 133 88 332 301 313 312 279 262 284
77 168 317 352 353 26 83 47 332 24 46 273 325 131 339 51 91 322 347 20 29 40 13 29 188 232 213 211 265 247 249 244 219 221 253 243 243 239 219 181 172 106 74 10 310 339 64 78 12 289 288 302 314 335 33 52 88 99 15 45 95 344 56 160 197 196 214 263 243 56 284 265 250 160 138 147 148 121 107 133 101 316 293 296 299 282 275 276
109 210 307 2 8 65 103 69 100 38 346 291 30 21 338 40 123 354 347 340 351 87 52 330 216 334 306 162 148 231 257 297 238 246 278 225 235 329 31 22 357 86 88 40 323 338 318 328 33 334 336 343 343 352 354 347 22 91 316 22 74 40 68 118 173 82 169 247 196 175 266 258 213 123 119 126 87 30 327 281 288 308 297 291 292 283 274 274
71 143 275 3 25 59 108 152 144 129 243 34 46 6 347 17 25 348 164 243 307 149 149 319 349 92 292 254 344 284 279 232 245 310 11 266 263 353 29 1 10 106 259 288 330 325 249 217 125 53 337 318 315 312 300 306 324 323 332 360 8 24 56 209 198 68 268 258 151 174 240 266 245 210 285 353 86 298 291 290 289 291 287 285 290 282 270 275
85 58 314 340 20 50 79 151 101 110 143 112 57 6 14 16 309 298 153 174 337 129 141 320 331 67 351 15 4 312 297 252 264 329 348 275 278 307 338 338 32 109 285 312 28 70 103 243 217 178 194 223 251 259 260 345 315 299 314 323 320 333 78 122 106 136 198 217 322 227 229 309 291 245 249 278 291 280 289 310 302 293 294 295 297 290 282 292
90 89 23 321 350 26 30 12 40 71 123 120 93 12 358 335 320 346 138 192 12 32 44 10 38 39 357 11 9 301 294 320 320 310 282 257 272 291 307 26 45 322 311 334 39 82 82 314 279 200 221 237 247 265 290 348 284 271 301 305 308 338 89 126 168 227 172 92 296 253 154 344 289 258 234 273 301 294 291 307 307 301 301 303 308 305 301 310
65 139 184 157 59 48 26 6 46 66 48 77 113 14 1 358 353 356 269 318 20 31 14 9 11 28 192 330 17 300 309 334 318 278 299 319 311 327 346 32 350 328 358 24 349 92 111 268 266 192 266 264 258 273 284 288 266 281 49 286 303 322 192 181 218 222 159 160 268 267 23 292 283 281 223 270 296 289 285 295 298 297 300 308 318 315 311 319
74 118 281 1 90 144 156 337 81 79 43 48 82 32 43 37 353 303 252 356 356 340 45 351 312 319 269 206 152 252 290 329 314 287 272 328 312 340 354 328 303 348 36 41 343 100 134 261 267 133 298 290 286 289 277 188 204 38 26 290 302 297 219 206 234 224 183 229 270 306 308 287 284 286 171 285 284 267 276 289 293 302 309 321 332 325 324 328
122 147 168 50 60 93 48 8 72 79 32 29 60 33 81 120 315 302 257 94 341 318 27 344 297 305 297 185 168 223 237 214 268 271 205 5 308 252 251 254 245 346 11 53 350 342 98 292 303 77 332 301 306 338 351 176 193 205 274 309 336 350 303 219 281 328 261 284 292 314 303 291 287 125 250 284 279 278 298 306 308 315 324 339 337 326 326 329
104 133 145 105 60 355 4 23 65 84 36 7 42 26 341 229 256 282 268 198 190 255 264 282 295 310 343 153 198 241 247 215 240 250 204 201 260 222 220 224 168 348 350 34 359 355 38 327 355 51 2 289 300 352 336 336 87 137 271 307 324 335 329 290 287 282 284 298 306 317 312 296 265 340 300 295 303 312 315 316 317 320 334 353 332 323 328 333
105 72 92 104 76 354 12 20 34 77 68 334 339 236 278 283 274 269 295 281 212 225 219 203 230 316 339 322 271 249 243 222 232 242 210 198 225 225 245 245 159 288 305 113 19 5 89 85 1 42 345 274 296 333 322 348 51 350 264 259 243 254 322 337 312 276 249 266 299 305 305 300 310 322 320 324 327 322 321 323 320 322 344 354 331 328 334 339